Regional Weather Roundup
Issued by NWS

Home | Current Version | Previous Version | Graphics & Text | Print | Product List | Glossary On
Versions: 1 2 3 4 5 6 7 8 9 10 11 12 13 14 15 16 17 18 19 20 21 22 23 24 25 26 27 28 29 30 31 32 33 34 35 36 37 38 39 40 41 42 43 44 45 46 47 48 49 50
000
ASUS43 KOAX 251602
RWRNE

WEATHER ROUNDUP FOR NEBRASKA
NATIONAL WEATHER SERVICE OMAHA NE
1100 AM CDT THU MAY 25 2017

NOTES: SATELLITE DATA IS BEING USED TO AUGMENT CLOUD COVER ABOVE
       12000 FEET.
       "FAIR" INDICATES FEW OR NO CLOUDS BELOW 12,000 FEET WITH NO
       SIGNIFICANT WEATHER AND/OR OBSTRUCTIONS TO VISIBILITY.

  * THESE STATIONS DO NOT REPORT WEATHER SUCH AS RAIN...SNOW OR FOG.

NEZ001>004-019>022-054>056-251700-
NEBRASKA PANHANDLE

CITY           SKY/WX    TMP DP  RH WIND       PRES   REMARKS
SCOTTSBLUFF    CLOUDY    65  46  50 W8        29.57R
ALLIANCE       MOSUNNY   66  45  46 N9        29.55R
CHADRON        CLOUDY    60  45  57 W6        29.55R
SIDNEY         MOSUNNY   68  49  50 N12       29.56S
$$

NEZ057>060-069>072-079>082-251700-
SOUTHWEST NEBRASKA

CITY           SKY/WX    TMP DP  RH WIND       PRES   REMARKS
NORTH PLATTE   MOSUNNY   62  49  62 E6        29.49F
IMPERIAL       SUNNY     70  51  51 NE8       29.50R
LEXINGTON      CLOUDY    62  49  63 S13       29.54S
MCCOOK         SUNNY     67  50  54 E7        29.49F
$$

NEZ005>010-023>029-035>040-094-251700-
NORTH CENTRAL NEBRASKA

CITY           SKY/WX    TMP DP  RH WIND       PRES   REMARKS
VALENTINE      CLOUDY    66  47  50 N12       29.47S
BROKEN BOW     LGT RAIN  57  49  74 SW12      29.53F
ORD            CLOUDY    59  45  59 S17       29.52F
$$

NEZ041-046>049-061>064-073>077-083>087-251700-
SOUTH CENTRAL NEBRASKA

CITY           SKY/WX    TMP DP  RH WIND       PRES   REMARKS
GRAND ISLAND   CLOUDY    67  48  50 S20       29.56F
HASTINGS       SUNNY     65  47  52 S12G21    29.59R
KEARNEY *      CLOUDY    64  46  52 S15       29.56F
$$

NEZ011>018-030>034-042>045-251700-
NORTHEAST NEBRASKA

CITY           SKY/WX    TMP DP  RH WIND       PRES   REMARKS
NORFOLK        SUNNY     67  44  43 S17G31    29.55F
ALBION         SUNNY     66  45  46 S23G33    29.54F
BLAIR          SUNNY     65  49  54 SE16G24   29.63F
TEKAMAH        SUNNY     67  51  56 SE18      29.62F
$$

NEZ050>053-065>068-078-088>093-251700-
SOUTHEAST NEBRASKA

CITY           SKY/WX    TMP DP  RH WIND       PRES   REMARKS
LINCOLN        SUNNY     69  47  45 S22G31    29.61F
OMAHA EPPLEY   MOSUNNY   67  48  50 S21       29.64F
FALLS CITY     SUNNY     68  49  50 SE20G25   29.65F
$$

NEZ044-045-051>053-067-251700-
OMAHA AREA

CITY           SKY/WX    TMP DP  RH WIND       PRES   REMARKS
OMAHA EPPLEY   MOSUNNY   67  48  50 S21       29.64F
BLAIR          SUNNY     65  49  54 SE16G24   29.63F
OFFUTT AFB     SUNNY     67  49  53 S15G21    29.64F
WAHOO          FAIR      67  46  47 S20G28    29.62S
$$




USA.gov is the U.S. government's official web portal to all federal, state and local government web resources and services.